EW3680 Weather Reports


time (UTC)temp
C
wind
direction
speed
KPH
gust
KPH
rain 1hr
cm
rain 24hr
cm
rain mn
cm
humidity
%
barometer
mb
20260507020107 18 304 3.2 14.5 0.00 0.00 0.00 69 1015.8
20260507014616 18 313 6.4 12.9 0.00 0.00 0.00 68 1015.7
20260507013053 18 355 8.0 16.1 0.00 0.00 0.00 66 1015.7
20260507011547 19 324 6.4 16.1 0.00 0.00 0.00 64 1015.7
20260507010059 18 338 8.0 20.9 0.00 0.00 0.00 64 1015.7
20260507004547 19 304 6.4 19.3 0.00 0.00 0.00 64 1015.6
20260507003044 19 331 9.7 14.5 0.00 0.00 0.00 63 1015.5
20260507001548 19 269 6.4 20.9 0.00 0.00 0.00 64 1015.4
20260507000043 19 291 6.4 22.5 0.00 0.00 0.00 64 1015.4
20260506234540 19 288 4.8 17.7 0.00 0.00 0.00 64 1015.4
20260506233020 19 217 8.0 24.1 0.00 0.00 0.00 66 1015.3
20260506231518 19 279 12.9 22.5 0.00 0.00 0.00 64 1015.3
20260506230105 20 5 8.0 20.9 0.00 0.00 0.00 63 1015.4
20260506224559 19 333 12.9 25.7 0.00 0.00 0.00 65 1015.4
20260506223038 20 278 8.0 22.5 0.00 0.00 0.00 66 1015.6
20260506221536 20 303 6.4 17.7 0.00 0.00 0.00 65 1015.6
20260506220024 19 300 9.7 20.9 0.00 0.00 0.00 66 1015.8
20260506214514 19 260 11.3 20.9 0.00 0.00 0.00 66 1015.9
20260506213056 19 270 11.3 25.7 0.00 0.00 0.00 66 1016.0
20260506211554 19 250 12.9 20.9 0.00 0.00 0.00 66 1016.1
20260506210033 19 254 11.3 24.1 0.00 0.00 0.00 66 1016.2
20260506204533 19 299 9.7 22.5 0.00 0.00 0.00 66 1016.2
20260506203012 19 281 14.5 24.1 0.00 0.00 0.00 66 1016.4
20260506201510 20 277 11.3 20.9 0.00 0.00 0.00 64 1016.4
20260506200051 20 292 11.3 22.5 0.00 0.00 0.00 63 1016.5
20260506194552 20 284 6.4 16.1 0.00 0.00 0.00 62 1016.6
20260506193030 20 47 4.8 17.7 0.00 0.00 0.00 62 1016.7
20260506191528 20 355 6.4 16.1 0.00 0.00 0.00 59 1016.9
20260506190007 20 355 1.6 16.1 0.00 0.00 0.00 57 1017.0
20260506184505 20 344 1.6 12.9 0.00 0.00 0.00 59 1017.1
20260506183046 20 313 6.4 17.7 0.00 0.00 0.00 59 1017.3
20260506181541 18 256 3.2 25.7 0.00 0.00 0.00 60 1017.4
20260506180021 18 238 4.8 14.5 0.00 0.00 0.00 61 1017.6
20260506174519 18 340 6.4 17.7 0.00 0.00 0.00 62 1017.7
20260506173120 17 17 3.2 17.7 0.00 0.00 0.00 65 1017.8
20260506171558 17 326 3.2 16.1 0.00 0.00 0.00 69 1018.1
20260506170034 17 24 1.6 9.7 0.00 0.00 0.00 68 1018.1
20260506164533 16 275 3.2 8.0 0.00 0.00 0.00 69 1017.9
20260506163019 16 19 6.4 11.3 0.00 0.00 0.00 70 1018.1
20260506161511 16 36 4.8 9.7 0.00 0.00 0.00 72 1018.0
20260506160053 16 10 1.6 8.0 0.00 0.00 0.00 73 1018.1
20260506154600 15 9 1.6 8.0 0.00 0.00 0.00 73 1018.1
20260506153039 15 349 3.2 8.0 0.00 0.00 0.00 73 1018.2
20260506151533 15 98 4.8 8.0 0.00 0.00 0.00 75 1018.2
20260506150016 14 59 3.2 6.4 0.00 0.00 0.00 77 1018.2
20260506144513 13 43 4.8 9.7 0.00 0.00 0.00 78 1018.1
20260506143056 13 47 1.6 8.0 0.00 0.15 0.00 81 1018.0
20260506141557 12 80 4.8 12.9 0.00 0.15 0.00 82 1018.0
20260506140044 12 50 1.6 4.8 0.00 0.15 0.00 83 1018.0
20260506134536 12 38 0.0 6.4 0.00 0.15 0.00 84 1017.9
20260506133015 11 42 1.6 4.8 0.00 0.15 0.00 85 1017.8
20260506131518 11 82 0.0 1.6 0.00 0.15 0.00 86 1017.5
20260506130059 11 55 0.0 4.8 0.00 0.15 0.00 86 1017.4
20260506124559 11 48 0.0 3.2 0.00 0.15 0.00 86 1017.3
20260506123038 11 42 0.0 4.8 0.00 0.18 0.00 86 1017.3
20260506121538 11 53 0.0 4.8 0.00 0.18 0.00 86 1017.2
20260506120025 11 50 0.0 0.0 0.00 0.18 0.00 85 1017.1
20260506114518 11 38 0.0 0.0 0.00 0.18 0.00 85 1017.1
20260506113005 11 57 0.0 0.0 0.00 0.18 0.00 84 1017.2
20260506111504 12 56 0.0 3.2 0.00 0.18 0.00 84 1017.1
20260506110005 12 42 1.6 4.8 0.00 0.18 0.00 84 1017.1
20260506104505 12 32 0.0 0.0 0.00 0.18 0.00 84 1017.1
20260506103003 12 46 0.0 4.8 0.00 0.20 0.00 84 1017.0
20260506101502 11 51 0.0 4.8 0.00 0.20 0.00 85 1017.0
20260506100002 11 46 1.6 4.8 0.00 0.20 0.00 85 1016.8
20260506094501 11 40 0.0 0.0 0.00 0.20 0.00 85 1016.9
20260506093008 11 60 0.0 0.0 0.00 0.23 0.00 84 1016.9
20260506091546 11 62 1.6 4.8 0.00 0.23 0.00 84 1016.9
20260506090046 12 59 0.0 0.0 0.00 0.23 0.00 84 1017.0
20260506084524 12 105 0.0 0.0 0.00 0.23 0.00 84 1017.2
20260506083023 12 105 0.0 0.0 0.00 0.46 0.00 84 1017.5
20260506081508 12 110 0.0 0.0 0.00 0.46 0.00 83 1017.5
20260506073045 12 38 0.0 3.2 0.00 0.53 0.00 82 1017.7
20260506071526 12 46 0.0 3.2 0.00 0.53 0.00 82 1017.7
20260506061558 13 69 0.0 0.0 0.00 0.53 0.00 78 1017.3
20260506044547 14 302 0.0 4.8 0.00 0.53 0.00 74 1017.0
20260506043051 14 320 1.6 4.8 0.00 0.53 0.00 74 1016.9
20260506041528 14 360 1.6 8.0 0.00 0.53 0.00 73 1016.8
20260506040025 14 325 3.2 8.0 0.00 0.53 0.00 73 1016.6
20260506034513 14 289 4.8 11.3 0.00 0.53 0.00 73 1016.4
20260506033010 15 286 4.8 9.7 0.00 0.53 0.00 73 1016.1
20260506031509 15 329 8.0 14.5 0.00 0.53 0.00 72 1016.0
20260506030006 15 302 3.2 11.3 0.00 0.53 0.00 72 1015.7
20260506024506 15 277 3.2 12.9 0.00 0.53 0.00 71 1015.5
20260506023005 15 285 4.8 16.1 0.00 0.53 0.00 69 1015.3
20260506021504 15 323 1.6 17.7 0.00 0.53 0.00 68 1015.1